Home   Weather   Grand Prairie   Past weeks

Flag for USA Past Weather in Grand Prairie, Texas, USA — Yesterday and Last 2 Weeks

Now
73 °F

Sunny.


Feels Like: 76 °F
Forecast: 50 / 71 °F
Wind: 9 mph from South

Location: Grand Prairie Municipal Airport

Current Time: Jan 20, 2017 at 6:28:20 pm

Latest Report: Jan 20, 2017 at 4:50 pm


Visibility: 10 mi

Pressure: 29.62 "Hg

Humidity: 27%

Dew Point: 37 °F

Location of Grand PrairieLocation

Past Weather in Grand Prairie — Graph

°F

Grand Prairie Temperature Yesterday

Maximum temperature yesterday: 64 °F (at 2:50 pm)
Minimum temperature yesterday: 47 °F (at 3:35 am)
Average temperature yesterday: 54 °F

High & Low Weather Summary for the Past Weeks

 TemperatureHumidityPressure
High77 °F (Jan 10, 2:50 pm)100% (Jan 11, 7:50 am)30.79 "Hg (Jan 11, 7:50 am)
Low16 °F (Jan 7, 7:50 am)21% (Jan 8, 2:50 pm)29.62 "Hg (Jan 20, 3:50 pm)
Average47 °F74%30.17 "Hg
* Reported Jan 5 4:50 pm — Jan 20 4:50 pm, Grand Prairie, Weather by CustomWeather, © 2017

Note: Actual official high and low records may vary slightly from our data, if they occured in-between our weather recording intervals... More about our weather records

Advertising

Grand Prairie Weather History for the Previous 24 Hours

Scroll right to see more
 ConditionsComfort  
Time TempWeatherWind HumidityBarometerVisibility
4:50 pm
Fri, Jan 20
73 °FSunny.9 mph27%29.62 "Hg10 mi
3:50 pm73 °FSunny.10 mph27%29.62 "Hg10 mi
2:50 pm73 °FSunny.10 mph25%29.63 "Hg10 mi
1:50 pm73 °FSunny.8 mph25%29.64 "Hg10 mi
12:50 pm72 °FSunny.10 mph27%29.66 "Hg10 mi
11:50 am70 °FSunny.9 mph29%29.72 "Hg10 mi
10:50 am64 °FSunny.9 mph34%29.74 "Hg10 mi
9:50 am57 °FSunny.8 mph51%29.73 "Hg10 mi
8:50 am50 °FSunny.8 mph62%29.70 "Hg10 mi
7:50 am46 °FSunny.3 mph71%29.68 "Hg10 mi
5:35 am48 °FClear.8 mph74%29.64 "Hg10 mi
5:15 am48 °FClear.6 mph72%29.64 "Hg10 mi
4:55 am49 °FClear.7 mph75%29.64 "Hg10 mi
4:15 am49 °FClear.6 mph76%29.64 "Hg10 mi
3:55 am50 °FClear.5 mph75%29.64 "Hg10 mi
3:35 am51 °FClear.6 mph75%29.64 "Hg10 mi
2:55 am51 °FClear.6 mph86%29.64 "Hg10 mi
2:15 am52 °FClear.8 mph90%29.64 "Hg10 mi
1:55 am53 °FClear.8 mph96%29.63 "Hg10 mi
1:15 am54 °FClear.8 mph95%29.63 "Hg10 mi
12:55 am54 °FClear.8 mph99%29.63 "Hg10 mi
12:15 am54 °FClear.9 mph100%29.65 "Hg7 mi
11:35 pm
Thu, Jan 19
54 °FClear.10 mph100%29.64 "Hg7 mi
10:55 pm55 °FClear.9 mph100%29.65 "Hg10 mi
10:15 pm55 °FClear.8 mph91%29.65 "Hg10 mi
9:55 pm56 °FClear.10 mph87%29.66 "Hg10 mi
9:15 pm57 °FClear.12 mph84%29.66 "Hg10 mi
8:35 pm57 °FClear.9 mph82%29.65 "Hg10 mi
7:55 pm57 °FClear.8 mph81%29.65 "Hg10 mi
7:35 pm58 °FClear.9 mph80%29.65 "Hg10 mi
Weather by CustomWeather, © 2017

See weather overviewHow to use our weather pages